Content
SEND FEEDBACK

Daily
Averages
Monthly
Summary
United States of America

ANDERSON, TEXAS


Home > North America > United States > Texas
Elevation: 370 feet     Latitude: 30 28N     Longitude: 095 59W

WEATHER
 
SELECT A DAY
Number of Records: 207,534;   Date Range: 1/1/95 - 9/22/14
 
SHARE

PRINT THIS DATA

[ ← Previous Day ]
WEATHER ALMANAC - JANUARY 3, 2013
[ Next Day → ]
[ °C ]   °F
Weather ElementAverageHighLow
Temperature42.6 °F50 °F (12:53 pm)32 °F (5:53 am)
Dewpoint30.8 °F34 °F (8:53 pm)28.9 °F (2:53 am)
Humidity65.2 %89 % (6:53 am)46 % (12:53 pm)
Barometer30.39 in30.44 in (9:53 am)30.33 in (1:53 am)
Wind Speed7.3 mph11.5 mph (10:53 am)
Weather ElementAverage
Visibility8.9 mi
Wind DirectionSSW (217.4 °)

Weather ElementTotal
Precipitation---
Heating Degree Days24 (Base 65)
Averaged from 23 records on January 3, 2013
WEATHER CONDITIONS BREAKOUT
WIND DIRECTION BREAKOUT
WEATHER BY HOUR - JANUARY 3, 2013
[ °C ]   °F
Local TimeTemperatureDewpointHumidityBarometerVisibilityWind DirectionWind SpeedGust SpeedPrecipitationEventsConditions
1:53 AM35.6 °F30.2 °F81 %30.33 in8.0 miNorth (360°)5.8 mphClear
2:53 AM33.1 °F28.9 °F85 %30.34 in8.0 miNorth (360°)4.6 mphClear
3:53 AM34.0 °F30.0 °F85 %30.35 in8.0 miNNE (20°)6.9 mphClear
4:53 AM33.1 °F28.9 °F85 %30.35 in7.0 miNNW (340°)4.6 mphClear
5:53 AM32.0 °F28.9 °F88 %30.37 in6.0 miNNW (340°)4.6 mphClear
6:53 AM33.1 °F30.0 °F89 %30.39 in7.0 miNW (320°)3.5 mphOvercast
7:53 AM33.1 °F30.0 °F89 %30.42 in5.0 miWest (280°)3.5 mphOvercast
8:53 AM36.0 °F30.9 °F82 %30.43 in6.0 miNorth (350°)5.8 mphHaze
9:53 AM42.1 °F32.0 °F67 %30.44 in10.0 miNNE (30°)9.2 mphOvercast
10:53 AM46.0 °F30.9 °F56 %30.43 in10.0 miNE (40°)11.5 mphClear
11:53 AM48.9 °F30.0 °F48 %30.41 in10.0 miNE (40°)9.2 mphClear
12:53 PM50.0 °F30.0 °F46 %30.38 in10.0 miNorth (10°)10.4 mphScattered Clouds
1:53 PM48.9 °F30.0 °F48 %30.38 in10.0 miNorth (350°)8.1 mphOvercast
2:53 PM50.0 °F32.0 °F50 %30.37 in10.0 miNNW (340°)6.9 mphOvercast
3:53 PM48.9 °F30.9 °F50 %30.38 in10.0 miNorth (350°)9.2 mphOvercast
4:53 PM48.0 °F30.9 °F52 %30.39 in10.0 miNorth (360°)9.2 mphOvercast
5:53 PM48.0 °F30.9 °F52 %30.40 in10.0 miNorth (350°)6.9 mph0.00 inOvercast
6:53 PM46.9 °F32.0 °F56 %30.41 in10.0 miNorth (360°)8.1 mphOvercast
7:53 PM46.9 °F32.0 °F56 %30.43 in10.0 miNNW (340°)5.8 mphOvercast
8:53 PM46.0 °F34.0 °F63 %30.42 in10.0 miNorth (10°)9.2 mph0.00 inRainLight Rain
9:53 PM46.9 °F33.1 °F59 %30.41 in10.0 miNNE (20°)6.9 mph0.00 inOvercast
10:53 PM46.9 °F32.0 °F56 %30.40 in10.0 miNNE (20°)8.1 mphOvercast
11:53 PM46.0 °F30.9 °F56 %30.41 in10.0 miNorth (10°)9.2 mphOvercast
Hourly data recorded from KCLL, located miles away from Anderson, Texas







STORIES FROM OUR PARTNERS